STARLINK-32421, 61628

Orbit data source: Space-Track

STARLINK-32421, 61628 is a payload satellite owned by SpaceX/Seattle (US) in LEO that was launched on Wed, 23 Oct 2024 UTC via an FALCON 9 launch vehicle from the Air Force Eastern Test Range (AFETR). Payload-class satellites include a variety of spacecraft equipped with specific instruments for various scientific and technological missions. These include communications satellites like Starlink; space stations such as the ISS; scientific satellites like the Hubble; Earth observation satellites from companies like Planet Labs, Umbra, and HawkEye 360; GPS; miniature CubeSats for education and research; and military/defense satellites.

Loading next visibility...
Identifier
61628, 2024-191H
Orbit
LEO
Country
Flag of USUS
Related business
Manufacturer
SpaceX/Seattle
Mission
Operational Commercial Communications
Bus & Motor
STARLINK V2M, Unknown motor
Mass
730 kg wet, ~700 kg dry
Launch date (UTC)
Icon of a cake. It is the launch day of the satellite!2024-10-23 (1 year ago)
Launch vehicle
FALCON 9
Launch site
Air Force Eastern Test Range (AFETR)
Object type
Payload
Rocket body
Debris
Shape & HBR
Box + 2 Pan, 17.7 m
Radar Cross Section
33.884 m², Large (>1 m²)

Expand to show TLE details & history
Last TLE update: 9 hours ago

TLE from 9 hours ago
0 STARLINK-32421
1 61628U 24191H   25295.84553530  .00003109  00000-0  12247-3 0  9998
2 61628  43.0002 213.0856 0000461 231.7745 128.3065 15.27567262 56457
Epoch: 2025-10-22T20:17Z
TLE epoch observation values (Epoch: 2025-10-22T20:17:34.249Z)
Latitude
-0.00005°
Longitude
-122.82045°
Altitude
483.059 km
Speed
7.626 km/s
True Right ascension
14h 12m 20s
True Declination
0° 00' 00"
Sunlit
Object was in daylight at epoch
Visualization orbit readout
Latitude
Unknown
Longitude
Unknown
Altitude
Unknown
Speed
Unknown
Apparent Right ascension
Unknown
Apparent Declination
Unknown
Sunlit
N/A
Visualization observer readout
Local Sidereal Time
00:24:15
Azimuth
Unknown
Elevation
Unknown
Doppler factor
Unknown
Orbital elements
Apogee altitude
485.349 km
Perigee altitude
484.716 km
Semi-major axis
6,863.169 km
Eccentricity
0.00005
Inclination
43.0002°
RAAN
213.0856°
Arg. of periapsis
231.7745°
True anomaly
128.31065°
Mean anomaly
128.3065°
Eccentric anomaly
128.30857°
Mean motion
3.8173 °/min
Orbital period
94.31 mins
BSTAR
0.00012247
Loading maneuver chart data...
Computing Atmospheric mass density...
Loading historical data...
Loading historical data...
Loading historical data...
Loading historical data...
Loading historical data...
Loading historical data...
Loading historical data...

Documentation

Showing up to 5 results
|